Home > Weather > Baden > Past weeks

Flag for Austria Past Weather in Baden, Lower Austria, Austria — Yesterday and Last 2 Weeks

Now
70 °F

Clear.


Feels Like: 70 °F
Forecast: 61 / 86 °F
Wind: 7 mph from West

Location: Vienna Schwechat-Flughafen Airport

Current Time: Jul 29, 2016 at 2:16:19 AM

Latest Report: Jul 29, 2016 at 1:50 AM


Visibility: 10 mi

Pressure: 29.98 "Hg

Humidity: 73%

Dew Point: 61 °F

Location of BadenLocation

Past Weather in Baden — Graph

°F

Baden Temperature Yesterday

Maximum temperature yesterday: 79 °F (at 3:20 PM)
Minimum temperature yesterday: 66 °F (at 3:20 AM)
Average temperature yesterday: 72 °F

High & Low Weather Summary for the Past Weeks

 TemperatureHumidityPressure
High84 °F (Jul 21, 2:20 PM)100% (Jul 23, 2:20 AM)30.21 "Hg (Jul 23, 2:20 AM)
Low55 °F (Jul 14, 5:50 AM)42% (Jul 19, 2:20 PM)29.77 "Hg (Jul 14, 6:20 AM)
Average71 °F71%30.04 "Hg
* Reported Jul 14 12:20 AM — Jul 29 12:50 AM, Baden, Weather by CustomWeather, © 2016

Note: Actual official high and low records may vary slightly from our data, if they occured in-between our weather recording intervals... More about our weather records

Advertising

Baden Weather History for the Previous 24 Hours

Scroll right to see more
 ConditionsComfort  
Time TempWeatherWind HumidityBarometerVisibility
12:50 AM
Fri, Jul 29
70 °FClear.7 mph73%29.98 "Hg10 mi
12:20 AM72 °FClear.7 mph69%29.98 "Hg10 mi
11:50 PM
Thu, Jul 28
72 °FClear.8 mph69%29.98 "Hg10 mi
11:20 PM72 °FClear.8 mph69%29.98 "Hg10 mi
10:50 PM73 °FClear.10 mph65%29.98 "Hg10 mi
10:20 PM73 °FClear.7 mph65%29.98 "Hg10 mi
9:50 PM73 °FClear.9 mph65%29.98 "Hg10 mi
9:20 PM73 °FSunny.9 mph65%29.98 "Hg10 mi
8:50 PM75 °FPassing clouds.9 mph61%29.98 "HgN/A
8:20 PM75 °FPartly sunny.15 mph61%29.98 "HgN/A
7:50 PM77 °FPartly sunny.12 mph54%29.98 "HgN/A
7:20 PM75 °FPartly sunny.3 mph69%29.98 "HgN/A
6:50 PM75 °FPartly sunny.6 mph69%29.98 "HgN/A
6:20 PM75 °FPartly sunny.8 mph69%29.98 "HgN/A
5:50 PM79 °FPartly sunny.8 mph61%29.98 "HgN/A
5:20 PM79 °FBroken clouds.6 mph61%29.98 "HgN/A
4:50 PM79 °FScattered clouds.9 mph58%29.98 "HgN/A
4:20 PM79 °FScattered clouds.9 mph58%29.98 "HgN/A
3:50 PM79 °FScattered clouds.10 mph61%29.98 "HgN/A
3:20 PM79 °FScattered clouds.9 mph58%29.98 "HgN/A
2:50 PM77 °FScattered clouds.10 mph61%30.01 "HgN/A
2:20 PM77 °FPartly sunny.10 mph65%30.01 "HgN/A
1:50 PM75 °FPartly sunny.9 mph69%30.01 "HgN/A
1:20 PM73 °FPartly sunny.8 mph74%30.04 "HgN/A
12:50 PM73 °FBroken clouds.7 mph74%30.04 "HgN/A
12:20 PM72 °FBroken clouds.8 mph73%30.04 "HgN/A
11:50 AM72 °FBroken clouds.10 mph78%30.04 "HgN/A
11:20 AM73 °FBroken clouds.13 mph69%30.04 "HgN/A
10:50 AM73 °FBroken clouds.14 mph69%30.04 "HgN/A
10:20 AM72 °FBroken clouds.13 mph78%30.04 "HgN/A
9:50 AM73 °FBroken clouds.10 mph74%30.04 "HgN/A
9:20 AM70 °FPartly sunny.7 mph83%30.04 "HgN/A
8:50 AM70 °FSprinkles. Broken clouds.10 mph83%30.04 "HgN/A
8:20 AM68 °FBroken clouds.13 mph83%30.04 "HgN/A
7:50 AM68 °FBroken clouds.12 mph83%30.04 "HgN/A
7:20 AM68 °FPartly sunny.8 mph83%30.04 "HgN/A
6:50 AM66 °FPartly sunny.6 mph88%30.04 "HgN/A
6:20 AM66 °FPassing clouds.3 mph88%30.01 "HgN/A
5:50 AM66 °FPassing clouds.8 mph88%30.01 "HgN/A
5:20 AM66 °FPassing clouds.7 mph88%30.01 "HgN/A
4:50 AM66 °FPartly cloudy.7 mph88%30.01 "HgN/A
4:20 AM66 °FPartly cloudy.7 mph94%30.01 "HgN/A
3:50 AM66 °FPartly cloudy.9 mph94%30.01 "HgN/A
3:20 AM66 °FRain showers. Passing clouds.10 mph94%30.01 "HgN/A
2:50 AM68 °FSprinkles. Passing clouds.17 mph88%30.01 "HgN/A
2:20 AM70 °FPartly cloudy.16 mph83%30.01 "HgN/A
Weather by CustomWeather, © 2016

See weather overviewHow to use our weather pages